CDT,Max TemperatureF,Mean TemperatureF,Min TemperatureF,Max Dew PointF,MeanDew PointF,Min DewpointF,Max Humidity, Mean Humidity, Min Humidity, Max Sea Level PressureIn, Mean Sea Level PressureIn, Min Sea Level PressureIn, Max VisibilityMiles, Mean VisibilityMiles, Min VisibilityMiles, Max Wind SpeedMPH, Mean Wind SpeedMPH, Max Gust SpeedMPH,PrecipitationIn, CloudCover, Events, WindDirDegrees
2012-3-1,48,34,20,30,24,19,92,69,45,29.84,29.78,29.69,10,10,10,22,6,26,0.00,0,,352
2012-3-2,42,32,22,24,19,15,88,61,34,30.01,29.90,29.80,10,10,10,35,14,44,0.00,0,,320
2012-3-3,42,31,19,23,19,14,77,58,38,30.04,29.99,29.91,10,10,10,24,10,30,0.00,2,,302
2012-3-4,52,38,23,36,28,21,92,65,38,30.22,29.99,29.82,10,10,8,36,12,45,0.01,3,Rain,314
2012-3-5,63,43,22,30,25,19,88,58,27,30.23,30.01,29.75,10,10,10,28,10,35,0.00,0,,182
2012-3-6,78,52,25,45,29,18,92,52,11,29.73,29.58,29.44,10,10,10,26,9,38,0.00,0,,163
2012-3-7,56,41,25,46,27,20,82,64,46,30.24,29.83,29.42,10,10,10,32,16,40,0.00,5,,346
2012-3-8,52,37,22,21,17,12,88,55,21,30.48,30.41,30.26,10,10,10,23,10,29,0.00,0,,313
2012-3-9,66,43,19,23,17,12,84,49,13,30.54,30.38,30.19,10,10,10,25,10,32,0.00,0,,213
2012-3-10,70,52,33,29,19,12,41,28,15,30.17,30.05,29.93,10,10,10,30,17,37,0.00,0,,198
2012-3-11,51,44,37,43,38,25,100,71,42,29.96,29.79,29.64,10,9,2,20,9,25,0.22,7,Rain,167
2012-3-12,75,55,35,41,37,30,100,60,20,29.95,29.71,29.59,10,9,4,17,8,22,0.10,2,Rain,234
2012-3-13,80,56,31,41,35,30,100,60,19,29.95,29.85,29.71,10,9,2,28,7,38,0.00,0,,170
2012-3-14,71,52,33,39,32,27,76,49,22,29.98,29.86,29.70,10,10,9,23,6,29,0.00,0,,359
2012-3-15,78,54,29,38,32,26,89,54,18,30.02,29.97,29.92,10,10,10,7,3,9,0.00,0,,325
2012-3-16,82,58,33,55,42,30,89,56,23,29.96,29.83,29.70,10,10,10,23,7,31,0.00,0,,158
2012-3-17,84,69,53,59,53,40,100,61,22,29.70,29.64,29.54,10,8,1,28,14,35,0.00,3,,160
2012-3-18,82,72,61,59,56,50,90,63,35,29.62,29.55,29.47,10,10,10,39,23,49,0.00,3,,177
2012-3-19,66,58,50,58,52,47,89,75,60,29.62,29.52,29.47,10,10,6,25,14,33,0.13,5,Rain,171
2012-3-20,56,49,41,48,40,32,92,67,41,29.95,29.79,29.63,10,10,10,21,10,25,0.00,6,,352
2012-3-21,65,51,37,54,45,32,100,78,56,29.99,29.93,29.88,10,9,2,20,11,24,0.03,6,Rain,19
2012-3-22,62,49,36,55,48,35,96,68,39,29.97,29.89,29.84,10,7,2,18,8,24,0.18,6,Rain,147
2012-3-23,67,49,31,42,37,30,96,65,34,30.02,29.96,29.92,10,10,10,12,2,15,0.00,0,,214
2012-3-24,73,55,37,50,43,34,85,65,44,30.09,30.00,29.94,10,10,9,17,5,22,0.00,0,,330
2012-3-25,72,57,42,52,46,41,100,75,49,30.14,30.07,29.95,10,6,0,15,5,18,0.00,5,Fog,46
2012-3-26,83,69,54,55,50,41,86,55,23,29.97,29.74,29.54,10,10,10,35,18,46,0.00,0,,157
2012-3-27,72,55,38,51,30,25,70,45,19,29.99,29.82,29.60,10,10,10,25,12,37,0.00,0,,284
2012-3-28,75,55,34,39,35,32,89,56,23,30.04,29.96,29.85,10,10,10,17,7,31,0.00,0,,121
2012-3-29,73,58,42,55,46,39,83,65,47,29.84,29.78,29.71,10,10,10,23,7,28,0.00,4,,72
2012-3-30,79,58,36,45,37,31,92,56,19,29.86,29.76,29.65,10,10,10,24,8,31,0.00,0,,245
2012-3-31,85,62,38,45,39,33,85,53,20,29.75,29.69,29.61,10,10,10,15,3,21,0.00,0,,278